When you browse on this site, cookies collect data to enhance your experience and personalize the content and advertising you see.
Visit our Privacy Policy to learn more. By continuing to use the site, you agree to this use of cookies and data.
  • In Schweiz
  • Länderverzeichnis
  • Für 7 Tage
  • Wassertemperatur
  • Wetterkarte
  • Widgets
  • user-avatar
    Anmelden

    Stündliche Wetter Bern

    Heute, 20 August, Dienstag

    Zeit Temperatur Niederschläge Wind Luftdruck Luftfeuchtigkeit
    00:00 +16°C° 0.4 mm 0 m/S 718 mmHg 94%
    01:00 +15°C° 1.5 mm 0 m/S 718 mmHg 95%
    02:00 +15°C° 1.5 mm 0 m/S 718 mmHg 96%
    03:00 +15°C° 1.5 mm 0 m/S 718 mmHg 97%
    04:00 +15°C° 1.4 mm 0 m/S 718 mmHg 97%
    05:00 +16°C° 1.4 mm 1 m/S 718 mmHg 98%
    06:00 +15°C° 1.4 mm 1 m/S 717 mmHg 98%
    07:00 +15°C° 1.6 mm 1 m/S 718 mmHg 98%
    08:00 +15°C° 1.6 mm 1 m/S 718 mmHg 98%
    09:00 +16°C° 1.6 mm 1 m/S 718 mmHg 98%
    10:00 +15°C° 2.1 mm 1 m/S 718 mmHg 98%
    11:00 +15°C° 2.1 mm 1 m/S 719 mmHg 98%
    12:00 +15°C° 2.1 mm 1 m/S 719 mmHg 97%
    13:00 +15°C° 1.9 mm 1 m/S 719 mmHg 97%
    14:00 +15°C° 1.9 mm 1 m/S 719 mmHg 98%
    15:00 +14°C° 1.9 mm 0 m/S 720 mmHg 98%
    16:00 +13°C° 1.7 mm 0 m/S 720 mmHg 98%
    17:00 +13°C° 1.7 mm 0 m/S 720 mmHg 98%
    18:00 +13°C° 1.7 mm 0 m/S 720 mmHg 98%
    19:00 +12°C° 1.2 mm 0 m/S 720 mmHg 98%
    20:00 +13°C° 1.2 mm 1 m/S 721 mmHg 98%
    21:00 +13°C° 1.2 mm 1 m/S 721 mmHg 98%
    22:00 +13°C° 0.2 mm 1 m/S 721 mmHg 98%
    23:00 +13°C° 0.2 mm 1 m/S 721 mmHg 98%

    Morgen, 21 August, Mittwoch

    Zeit Temperatur Niederschläge Wind Luftdruck Luftfeuchtigkeit
    00:00 +12°C° 0.2 mm 1 m/S 721 mmHg 98%
    01:00 +12°C° 0 mm 1 m/S 721 mmHg 98%
    02:00 +12°C° 0 mm 1 m/S 721 mmHg 97%
    03:00 +11°C° 0 mm 1 m/S 721 mmHg 97%
    04:00 +12°C° 0 mm 2 m/S 721 mmHg 96%
    05:00 +12°C° 0 mm 2 m/S 721 mmHg 96%
    06:00 +12°C° 0 mm 2 m/S 720 mmHg 96%
    07:00 +12°C° 0 mm 3 m/S 720 mmHg 90%
    08:00 +14°C° 0 mm 3 m/S 720 mmHg 84%
    09:00 +15°C° 0 mm 4 m/S 720 mmHg 79%
    10:00 +18°C° 0 mm 4 m/S 720 mmHg 73%
    11:00 +19°C° 0 mm 4 m/S 720 mmHg 68%
    12:00 +21°C° 0 mm 4 m/S 720 mmHg 63%
    13:00 +21°C° 0 mm 4 m/S 720 mmHg 64%
    14:00 +21°C° 0 mm 4 m/S 719 mmHg 65%
    15:00 +21°C° 0 mm 4 m/S 719 mmHg 66%
    16:00 +20°C° 0 mm 3 m/S 719 mmHg 72%
    17:00 +19°C° 0 mm 3 m/S 719 mmHg 78%
    18:00 +18°C° 0 mm 2 m/S 719 mmHg 84%
    19:00 +17°C° 0 mm 2 m/S 719 mmHg 87%
    20:00 +16°C° 0 mm 2 m/S 719 mmHg 90%
    21:00 +15°C° 0 mm 1 m/S 720 mmHg 94%
    22:00 +14°C° 0 mm 1 m/S 719 mmHg 94%
    23:00 +14°C° 0 mm 1 m/S 719 mmHg 94%

    übermorgen, 22 August, Donnerstag

    Zeit Temperatur Niederschläge Wind Luftdruck Luftfeuchtigkeit
    00:00 +14°C° 0 mm 1 m/S 719 mmHg 95%
    01:00 +13°C° 0 mm 1 m/S 719 mmHg 95%
    02:00 +13°C° 0 mm 1 m/S 719 mmHg 95%
    03:00 +13°C° 0 mm 1 m/S 719 mmHg 95%
    04:00 +13°C° 0 mm 1 m/S 719 mmHg 94%
    05:00 +14°C° 0 mm 1 m/S 719 mmHg 93%
    06:00 +15°C° 0 mm 1 m/S 720 mmHg 92%
    07:00 +16°C° 0 mm 1 m/S 720 mmHg 85%
    08:00 +19°C° 0 mm 1 m/S 720 mmHg 79%
    09:00 +20°C° 0 mm 2 m/S 720 mmHg 73%
    10:00 +21°C° 0 mm 2 m/S 720 mmHg 69%
    11:00 +24°C° 0 mm 2 m/S 720 mmHg 66%
    12:00 +25°C° 0 mm 2 m/S 720 mmHg 62%
    13:00 +25°C° 0 mm 2 m/S 720 mmHg 63%
    14:00 +25°C° 0 mm 2 m/S 720 mmHg 64%
    15:00 +25°C° 0 mm 2 m/S 720 mmHg 64%
    16:00 +23°C° 0 mm 2 m/S 720 mmHg 72%
    17:00 +21°C° 0 mm 2 m/S 720 mmHg 80%
    18:00 +20°C° 0 mm 1 m/S 720 mmHg 88%
    19:00 +19°C° 0 mm 1 m/S 720 mmHg 90%
    20:00 +18°C° 0 mm 1 m/S 720 mmHg 93%
    21:00 +16°C° 0 mm 1 m/S 720 mmHg 95%
    22:00 +16°C° 0 mm 1 m/S 720 mmHg 96%
    23:00 +16°C° 0 mm 1 m/S 720 mmHg 96%

    23 August, Freitag

    Zeit Temperatur Niederschläge Wind Luftdruck Luftfeuchtigkeit
    00:00 +15°C° 0 mm 1 m/S 720 mmHg 96%
    01:00 +15°C° 0 mm 1 m/S 719 mmHg 96%
    02:00 +15°C° 0 mm 1 m/S 719 mmHg 96%
    03:00 +14°C° 0 mm 1 m/S 719 mmHg 95%
    04:00 +15°C° 0 mm 1 m/S 719 mmHg 95%
    05:00 +16°C° 0 mm 1 m/S 719 mmHg 94%
    06:00 +16°C° 0 mm 1 m/S 719 mmHg 93%
    07:00 +19°C° 0 mm 1 m/S 720 mmHg 88%
    08:00 +20°C° 0 mm 1 m/S 720 mmHg 83%
    09:00 +21°C° 0 mm 2 m/S 720 mmHg 78%
    10:00 +23°C° 0 mm 2 m/S 720 mmHg 74%
    11:00 +24°C° 0 mm 2 m/S 720 mmHg 69%
    12:00 +25°C° 0 mm 2 m/S 719 mmHg 65%
    13:00 +25°C° 0.2 mm 2 m/S 719 mmHg 66%
    14:00 +26°C° 0.2 mm 2 m/S 719 mmHg 66%
    15:00 +26°C° 0.2 mm 2 m/S 719 mmHg 67%
    16:00 +24°C° 0.1 mm 2 m/S 718 mmHg 74%
    17:00 +23°C° 0.1 mm 1 m/S 718 mmHg 81%
    18:00 +21°C° 0.1 mm 1 m/S 718 mmHg 88%
    19:00 +20°C° 0 mm 1 m/S 718 mmHg 90%
    20:00 +20°C° 0 mm 1 m/S 718 mmHg 91%
    21:00 +19°C° 0 mm 1 m/S 718 mmHg 93%
    22:00 +18°C° 0 mm 1 m/S 718 mmHg 93%
    23:00 +18°C° 0 mm 1 m/S 718 mmHg 92%

    24 August, Samstag

    Zeit Temperatur Niederschläge Wind Luftdruck Luftfeuchtigkeit
    00:00 +18°C° 0 mm 1 m/S 718 mmHg 91%
    01:00 +16°C° 0 mm 1 m/S 718 mmHg 91%
    02:00 +16°C° 0 mm 1 m/S 718 mmHg 90%
    03:00 +16°C° 0 mm 1 m/S 717 mmHg 90%
    04:00 +16°C° 0 mm 1 m/S 717 mmHg 89%
    05:00 +18°C° 0 mm 1 m/S 718 mmHg 88%
    06:00 +19°C° 0 mm 1 m/S 718 mmHg 87%
    07:00 +21°C° 0 mm 1 m/S 718 mmHg 79%
    08:00 +23°C° 0 mm 1 m/S 718 mmHg 70%
    09:00 +26°C° 0 mm 1 m/S 718 mmHg 62%
    10:00 +27°C° 0 mm 1 m/S 718 mmHg 58%
    11:00 +28°C° 0 mm 1 m/S 718 mmHg 54%
    12:00 +29°C° 0 mm 2 m/S 718 mmHg 49%
    13:00 +29°C° 0.3 mm 1 m/S 718 mmHg 49%
    14:00 +29°C° 0.3 mm 1 m/S 718 mmHg 49%
    15:00 +29°C° 0.3 mm 1 m/S 717 mmHg 49%
    16:00 +25°C° 0.1 mm 0 m/S 717 mmHg 57%
    17:00 +23°C° 0.1 mm 0 m/S 717 mmHg 66%
    18:00 +21°C° 0.1 mm 0 m/S 717 mmHg 74%
    19:00 +22°C° 0 mm 1 m/S 717 mmHg 76%
    20:00 +21°C° 0 mm 1 m/S 717 mmHg 77%
    21:00 +20°C° 0 mm 1 m/S 717 mmHg 79%
    22:00 +20°C° 0 mm 1 m/S 717 mmHg 79%
    23:00 +19°C° 0 mm 1 m/S 717 mmHg 79%

    25 August, Sonntag

    Zeit Temperatur Niederschläge Wind Luftdruck Luftfeuchtigkeit
    00:00 +19°C° 0 mm 1 m/S 717 mmHg 79%
    01:00 +19°C° 0 mm 1 m/S 717 mmHg 79%
    02:00 +18°C° 0 mm 1 m/S 716 mmHg 79%
    03:00 +18°C° 0 mm 1 m/S 716 mmHg 79%
    04:00 +19°C° 0 mm 1 m/S 716 mmHg 79%
    05:00 +19°C° 0 mm 1 m/S 716 mmHg 79%
    06:00 +20°C° 0 mm 1 m/S 717 mmHg 79%
    07:00 +22°C° 0 mm 1 m/S 717 mmHg 71%
    08:00 +25°C° 0 mm 1 m/S 717 mmHg 63%
    09:00 +27°C° 0 mm 1 m/S 717 mmHg 55%
    10:00 +28°C° 0 mm 1 m/S 717 mmHg 52%
    11:00 +29°C° 0 mm 1 m/S 717 mmHg 48%
    12:00 +30°C° 0 mm 1 m/S 717 mmHg 45%
    13:00 +30°C° 0.1 mm 1 m/S 717 mmHg 46%
    14:00 +30°C° 0.1 mm 1 m/S 716 mmHg 47%
    15:00 +29°C° 0.1 mm 1 m/S 716 mmHg 48%
    16:00 +27°C° 0.2 mm 1 m/S 716 mmHg 57%
    17:00 +25°C° 0.2 mm 1 m/S 716 mmHg 66%
    18:00 +23°C° 0.2 mm 1 m/S 716 mmHg 75%
    19:00 +22°C° 0 mm 1 m/S 716 mmHg 76%
    20:00 +22°C° 0 mm 1 m/S 716 mmHg 76%
    21:00 +21°C° 0 mm 1 m/S 717 mmHg 76%
    22:00 +20°C° 0 mm 1 m/S 717 mmHg 77%
    23:00 +20°C° 0 mm 1 m/S 716 mmHg 77%
    Mehr zeigen